Aérodrome :
LOGIN :

S'inscrire | Disclaimer

   EN    FR    IT 

 










Légende :    VFR   VFR Marginal   IFR   IFR Intensif   IFR Très Intensif
Visi : 
Plafond : 
>= 8 km
>= 3000ft
5 à 8 km
1000 à 3000 ft
1500m à 5 km
500 à 1000 ft
800 à 1500m
200 à 500 ft
< 800m
< 200 ft
Symboles :   Orages  Brouillard  Fortes neiges  Fortes précipitations  Vent > 20 kt
SIGMETs :   Divers  Orages  Givrage  Turbulence  Onde Orograph.  Cendres Volcan.







- Altitude de l'aérodrome : 239 ft
- Code IATA : VRN


LIPX - Villafranca Int. Verona

DERNIER METAR :
  • 251920Z 23002KT CAVOK 20/12 Q1012

METARs EXPIRÉS :
  • 251820Z 21003KT CAVOK 22/12 Q1012
  • 251750Z 21004KT CAVOK 24/12 Q1012
  • 251720Z 20004KT CAVOK 25/13 Q1012
  • 251650Z 21007KT CAVOK 25/12 Q1012

TAF TAF LIPX
Valide du 25 à 18h jusqu'au 26 à 03h UTC


251700Z 2518/2603 VRB05KT CAVOK
Pas de NOTAMs connus pour ce terrain.



MET'MAP, la Météo Aéronautique d'un coup d'oeil ! - Copyright ORBIFLY Décembre 2007 - Disclaimer

ORBIFLY MET'MAP TEAM :

Programmation & Développement : Alexandra Zaïnal
Conception & Développement : Baudouin d'Aumeries
Co-Programmation & Développement : Marc-Olivier Méhu
Soutien technique & logistique : Manuel Goepfert

Contact : metmap@orbifly.com




SOURCES & CREDITS :

   NOAA